EW5716 Weather Reports


time (UTC)temp
C
wind
direction
speed
KPH
gust
KPH
rain 1hr
cm
rain 24hr
cm
rain mn
cm
humidity
%
barometer
mb
20260506191559 6 333 4.8 12.9 0.03 1.88 1.52 96 1004.1
20260506190100 5 5 4.8 14.5 0.08 1.88 1.52 96 1004.0
20260506184600 5 340 1.6 6.4 0.13 1.88 1.52 96 1004.0
20260506183106 5 11 3.2 9.7 0.15 1.88 1.52 95 1004.3
20260506181602 5 342 1.6 6.4 0.18 1.85 1.50 95 1004.4
20260506180101 5 327 1.6 8.0 0.20 1.80 1.42 95 1004.3
20260506180002 5 327 1.6 8.0 0.20 1.80 1.42 95 1004.4
20260506174602 5 349 1.6 4.8 0.20 1.75 1.40 95 1004.6
20260506173101 5 5 0.0 8.0 0.23 1.73 1.37 95 1005.0
20260506171604 5 323 3.2 9.7 0.23 1.68 1.32 95 1004.9
20260506170107 5 5 3.2 19.3 0.18 1.60 1.24 95 1004.7
20260506170002 5 26 1.6 19.3 0.18 1.60 1.24 95 1004.7
20260506164603 6 333 4.8 14.5 0.15 1.55 1.19 95 1004.9
20260506164503 6 328 3.2 9.7 0.15 1.55 1.19 95 1004.9
20260506163106 6 348 1.6 9.7 0.13 1.50 1.14 95 1004.3
20260506161607 6 342 1.6 6.4 0.10 1.42 1.09 95 1004.3
20260506160059 7 351 0.0 6.4 0.13 1.42 1.07 95 1004.4
20260506160002 7 351 1.6 6.4 0.13 1.42 1.07 95 1004.3
20260506154613 7 351 1.6 6.4 0.10 1.40 1.04 95 1004.4
20260506153059 7 18 1.6 4.8 0.10 1.37 1.02 95 1004.7
20260506151600 7 19 1.6 8.0 0.10 1.35 0.99 95 1005.0
20260506150100 7 26 1.6 8.0 0.05 1.30 0.94 95 1004.8
20260506150002 7 26 3.2 8.0 0.05 1.30 0.94 95 1004.9
20260506144604 7 74 0.0 4.8 0.10 1.30 0.94 96 1004.8
20260506144501 7 72 0.0 4.8 0.10 1.30 0.94 96 1004.8
20260506143059 7 30 1.6 9.7 0.10 1.27 0.91 95 1004.9
20260506141604 7 32 0.0 4.8 0.13 1.24 0.89 95 1005.2
20260506140122 7 75 3.2 6.4 0.15 1.24 0.89 95 1005.2
20260506140000 7 74 1.6 6.4 0.15 1.24 0.89 95 1005.1
20260506134700 7 18 4.8 9.7 0.13 1.19 0.84 95 1005.9
20260506133107 7 26 1.6 6.4 0.13 1.17 0.81 95 1005.2
20260506131559 7 9 1.6 4.8 0.08 1.12 0.76 95 1005.5
20260506130100 7 9 0.0 4.8 0.05 1.09 0.71 95 1005.5
20260506130001 7 9 0.0 4.8 0.05 1.09 0.71 95 1005.5
20260506124602 7 5 1.6 12.9 0.03 1.07 0.71 94 1005.8
20260506123100 7 348 1.6 6.4 0.00 1.04 0.69 94 1006.1
20260506121600 8 34 0.0 9.7 0.00 1.04 0.69 94 1006.3
20260506120059 8 12 0.0 0.0 0.03 1.04 0.69 94 1005.9
20260506120001 8 12 0.0 0.0 0.03 1.04 0.69 94 1005.9
20260506113102 8 12 0.0 0.0 0.03 1.04 0.69 95 1005.8
20260506111606 7 12 0.0 0.0 0.03 1.04 0.69 94 1005.7
20260506110058 7 12 0.0 3.2 0.00 1.02 0.66 94 1005.8
20260506110002 7 12 0.0 6.4 0.00 1.02 0.66 94 1005.7
20260506103102 7 355 0.0 0.0 0.03 1.02 0.66 94 1005.8
20260506101559 8 20 3.2 8.0 0.03 1.02 0.66 94 1005.8
20260506100002 8 17 0.0 6.4 0.03 1.02 0.66 94 1006.0
20260506094559 8 19 1.6 3.2 0.00 0.99 0.64 94 1006.7
20260506093102 8 13 0.0 8.0 0.00 0.99 0.64 94 1006.2
20260506091601 8 348 0.0 6.4 0.05 0.99 0.64 94 1006.2
20260506090058 8 14 3.2 6.4 0.05 0.99 0.64 94 1006.3
20260506090001 8 14 3.2 6.4 0.05 0.99 0.64 94 1006.3
20260506084603 8 9 0.0 4.8 0.05 0.99 0.64 94 1006.4
20260506083100 9 9 0.0 3.2 0.05 0.99 0.64 94 1006.9
20260506081601 9 360 0.0 9.7 0.00 0.94 0.58 94 1006.2
20260506073059 10 14 0.0 0.0 0.08 0.94 0.58 94 1006.1
20260506071559 10 14 0.0 0.0 0.08 0.94 0.58 94 1006.2
20260506061613 10 14 0.0 0.0 0.10 0.86 0.51 94 1006.2
20260506050104 10 16 0.0 0.0 0.36 0.71 0.38 93 1006.9
20260506044639 10 15 0.0 8.0 0.43 0.69 0.33 92 1006.1
20260506043059 10 14 1.6 8.0 0.43 0.64 0.28 92 1006.8
20260506043026 10 19 3.2 8.0 0.43 0.64 0.28 92 1006.8
20260506041559 10 333 3.2 12.9 0.25 0.46 0.10 91 1007.0
20260506040059 11 14 3.2 9.7 0.15 0.36 0.00 90 1006.1
20260506040004 11 15 3.2 9.7 0.15 0.36 0.00 90 1006.1
20260506034600 12 344 1.6 20.9 0.08 0.25 0.25 89 1005.8
20260506033159 13 310 1.6 8.0 0.03 0.20 0.20 85 1005.4
20260506031559 13 259 0.0 4.8 0.03 0.20 0.20 84 1005.2
20260506030100 14 218 0.0 8.0 0.03 0.20 0.20 81 1005.2
20260506030001 14 218 0.0 8.0 0.03 0.20 0.20 81 1005.1
20260506024602 15 254 0.0 3.2 0.00 0.18 0.18 76 1005.1
20260506023102 15 255 0.0 11.3 0.00 0.18 0.18 76 1005.1
20260506021610 15 206 3.2 11.3 0.00 0.18 0.18 76 1005.3
20260506020058 14 194 0.0 4.8 0.00 0.18 0.18 78 1004.9
20260506020001 14 194 0.0 4.8 0.00 0.18 0.18 77 1004.9
20260506014603 14 184 0.0 8.0 0.00 0.18 0.18 78 1004.6
20260506013105 14 210 0.0 6.4 0.00 0.18 0.18 79 1004.7
20260506011559 14 222 0.0 6.4 0.00 0.18 0.18 79 1004.8
20260506010117 14 221 0.0 11.3 0.00 0.18 0.18 80 1004.8
20260506010001 14 221 0.0 11.3 0.00 0.18 0.18 80 1004.8
20260506004606 14 213 0.0 12.9 0.00 0.18 0.18 81 1004.6
20260506001600 14 231 0.0 9.7 0.00 0.18 0.18 82 1004.3
20260506000100 14 243 1.6 14.5 0.00 0.18 0.18 82 1004.5
20260505234610 14 230 0.0 6.4 0.00 0.18 0.18 82 1004.1
20260505233100 14 202 1.6 11.3 0.00 0.18 0.18 83 1004.0
20260505231601 14 185 3.2 8.0 0.00 0.18 0.18 84 1003.7
20260505230001 13 293 0.0 4.8 0.00 0.18 0.18 85 1003.8
20260505224600 13 265 0.0 12.9 0.00 0.18 0.18 87 1003.5
20260505223059 13 223 1.6 11.3 0.00 0.18 0.18 88 1003.8
20260505221600 13 200 1.6 8.0 0.00 0.18 0.18 89 1003.6
20260505220059 13 206 0.0 4.8 0.00 0.18 0.18 87 1003.2
20260505220001 14 206 0.0 4.8 0.00 0.18 0.18 88 1003.1
20260505214624 14 295 0.0 3.2 0.00 0.18 0.18 88 1003.1
20260505213104 13 294 1.6 8.0 0.00 0.18 0.18 88 1003.2
20260505211559 13 286 1.6 6.4 0.03 0.18 0.18 88 1003.4
20260505210104 13 296 3.2 16.1 0.15 0.18 0.18 88 1003.4
20260505210001 13 272 4.8 16.1 0.15 0.18 0.18 88 1003.4
20260505204605 13 217 1.6 9.7 0.15 0.18 0.18 89 1002.9
20260505203100 14 303 1.6 8.0 0.18 0.18 0.18 88 1002.6
20260505201600 15 319 3.2 22.5 0.15 0.15 0.15 84 1003.0
20260505201523 15 305 3.2 22.5 0.15 0.15 0.15 83 1003.0
20260505200107 18 331 3.2 16.1 0.03 0.03 0.03 62 1001.8
20260505194608 20 180 16.1 33.8 0.03 0.03 0.03 57 1000.9
20260505193100 22 215 9.7 30.6 0.00 0.00 0.00 42 1000.4